• In Austria
  • List of Countries
  • For 7 days
  • Water Temperature
  • Satellite Maps
  • Weather Map
  • News
  • Weather Widgets
  • user-avatar
    Login

    Hourly Weather Kipungo

    Today, 18 December, Monday

    Time Temperature Precipitation Wind Pressure Humidity
    00:00 +21°C° 0.6 mm 1 mps 653 mmHg 93%
    01:00 +21°C° 0 mm 1 mps 653 mmHg 93%
    02:00 +21°C° 0.5 mm 1 mps 653 mmHg 93%
    03:00 +21°C° 0.5 mm 1 mps 653 mmHg 93%
    04:00 +21°C° 0.5 mm 1 mps 652 mmHg 93%
    05:00 +21°C° 0.5 mm 1 mps 653 mmHg 92%
    06:00 +21°C° 0.5 mm 1 mps 653 mmHg 91%
    07:00 +22°C° 0 mm 1 mps 653 mmHg 88%
    08:00 +22°C° 0.1 mm 1 mps 653 mmHg 83%
    09:00 +23°C° 0.1 mm 1 mps 654 mmHg 79%
    10:00 +24°C° 0.1 mm 1 mps 654 mmHg 75%
    11:00 +25°C° 0.5 mm 1 mps 654 mmHg 70%
    12:00 +27°C° 0.5 mm 2 mps 653 mmHg 64%
    13:00 +28°C° 0.5 mm 2 mps 653 mmHg 58%
    14:00 +28°C° 1.6 mm 2 mps 653 mmHg 62%
    15:00 +27°C° 1.6 mm 2 mps 652 mmHg 65%
    16:00 +27°C° 1.6 mm 2 mps 652 mmHg 69%
    17:00 +25°C° 1.7 mm 2 mps 652 mmHg 75%
    18:00 +24°C° 1.7 mm 2 mps 651 mmHg 80%
    19:00 +23°C° 1.7 mm 1 mps 651 mmHg 86%
    20:00 +22°C° 0.1 mm 1 mps 652 mmHg 86%
    21:00 +22°C° 0.1 mm 1 mps 652 mmHg 87%
    22:00 +22°C° 0.1 mm 1 mps 652 mmHg 88%
    23:00 +21°C° 0 mm 1 mps 652 mmHg 89%

    Tomorrow, 19 December, Tuesday

    Time Temperature Precipitation Wind Pressure Humidity
    00:00 +21°C° 0 mm 1 mps 652 mmHg 90%
    01:00 +21°C° 0 mm 1 mps 651 mmHg 91%
    02:00 +21°C° 0 mm 1 mps 651 mmHg 92%
    03:00 +20°C° 0 mm 1 mps 651 mmHg 93%
    04:00 +20°C° 0 mm 1 mps 651 mmHg 94%
    05:00 +19°C° 0.2 mm 0 mps 652 mmHg 92%
    06:00 +19°C° 0.2 mm 0 mps 652 mmHg 91%
    07:00 +19°C° 0.2 mm 0 mps 652 mmHg 90%
    08:00 +23°C° 0.3 mm 1 mps 653 mmHg 84%
    09:00 +24°C° 0.3 mm 1 mps 653 mmHg 79%
    10:00 +25°C° 0.3 mm 1 mps 653 mmHg 73%
    11:00 +26°C° 0.5 mm 1 mps 653 mmHg 68%
    12:00 +27°C° 0.5 mm 2 mps 653 mmHg 64%
    13:00 +28°C° 0.5 mm 2 mps 653 mmHg 59%
    14:00 +28°C° 0.9 mm 2 mps 652 mmHg 61%
    15:00 +27°C° 0.9 mm 2 mps 652 mmHg 63%
    16:00 +27°C° 0.9 mm 2 mps 651 mmHg 66%
    17:00 +25°C° 1.6 mm 2 mps 652 mmHg 73%
    18:00 +24°C° 1.6 mm 2 mps 652 mmHg 80%
    19:00 +21°C° 1.6 mm 2 mps 652 mmHg 88%
    20:00 +21°C° 0.7 mm 2 mps 652 mmHg 89%
    21:00 +20°C° 0.7 mm 2 mps 652 mmHg 91%
    22:00 +20°C° 0.7 mm 2 mps 653 mmHg 93%
    23:00 +20°C° 0.6 mm 2 mps 653 mmHg 93%

    Day after tomorrow, 20 December, Wednesday

    Time Temperature Precipitation Wind Pressure Humidity
    00:00 +20°C° 0.6 mm 2 mps 652 mmHg 94%
    01:00 +19°C° 0.6 mm 2 mps 652 mmHg 94%
    02:00 +19°C° 0.7 mm 2 mps 652 mmHg 94%
    03:00 +19°C° 0.7 mm 2 mps 652 mmHg 95%
    04:00 +20°C° 0.7 mm 1 mps 651 mmHg 95%
    05:00 +20°C° 0.3 mm 1 mps 652 mmHg 94%
    06:00 +20°C° 0.3 mm 1 mps 652 mmHg 93%
    07:00 +20°C° 0.3 mm 1 mps 653 mmHg 91%
    08:00 +22°C° 0.6 mm 1 mps 653 mmHg 87%
    09:00 +23°C° 0.6 mm 1 mps 653 mmHg 82%
    10:00 +24°C° 0.6 mm 2 mps 654 mmHg 78%
    11:00 +24°C° 1.5 mm 1 mps 653 mmHg 79%
    12:00 +24°C° 1.5 mm 1 mps 653 mmHg 80%
    13:00 +24°C° 1.5 mm 1 mps 652 mmHg 82%
    14:00 +23°C° 2.3 mm 2 mps 652 mmHg 85%
    15:00 +21°C° 2.3 mm 2 mps 652 mmHg 88%
    16:00 +20°C° 2.3 mm 2 mps 651 mmHg 91%
    17:00 +20°C° 1.7 mm 2 mps 652 mmHg 92%
    18:00 +20°C° 1.7 mm 2 mps 652 mmHg 93%
    19:00 +19°C° 1.7 mm 2 mps 652 mmHg 94%
    20:00 +19°C° 0.9 mm 2 mps 653 mmHg 94%
    21:00 +19°C° 0.9 mm 2 mps 653 mmHg 95%
    22:00 +18°C° 0.9 mm 2 mps 654 mmHg 95%
    23:00 +19°C° 1 mm 1 mps 653 mmHg 95%

    21 December, Thursday

    Time Temperature Precipitation Wind Pressure Humidity
    00:00 +19°C° 1 mm 1 mps 653 mmHg 95%
    01:00 +19°C° 1 mm 1 mps 653 mmHg 95%
    02:00 +19°C° 1.9 mm 1 mps 652 mmHg 96%
    03:00 +19°C° 1.9 mm 1 mps 652 mmHg 96%
    04:00 +19°C° 1.9 mm 1 mps 652 mmHg 96%
    05:00 +19°C° 0.9 mm 1 mps 652 mmHg 96%
    06:00 +19°C° 0.9 mm 1 mps 653 mmHg 95%
    07:00 +19°C° 0.9 mm 1 mps 653 mmHg 95%
    08:00 +20°C° 0.4 mm 1 mps 653 mmHg 92%
    09:00 +20°C° 0.4 mm 1 mps 654 mmHg 90%
    10:00 +21°C° 0.4 mm 1 mps 654 mmHg 88%
    11:00 +22°C° 0.4 mm 1 mps 654 mmHg 83%
    12:00 +23°C° 0.4 mm 2 mps 653 mmHg 79%
    13:00 +24°C° 0.4 mm 2 mps 653 mmHg 74%
    14:00 +24°C° 0.6 mm 2 mps 653 mmHg 74%
    15:00 +23°C° 0.6 mm 2 mps 653 mmHg 74%
    16:00 +23°C° 0.6 mm 2 mps 652 mmHg 73%
    17:00 +22°C° 0.6 mm 1 mps 652 mmHg 77%
    18:00 +21°C° 0.6 mm 1 mps 653 mmHg 80%
    19:00 +21°C° 0.6 mm 1 mps 653 mmHg 84%
    20:00 +20°C° 0.1 mm 1 mps 653 mmHg 84%
    21:00 +20°C° 0.1 mm 1 mps 654 mmHg 85%
    22:00 +20°C° 0.1 mm 1 mps 654 mmHg 86%
    23:00 +20°C° 0 mm 1 mps 653 mmHg 86%

    22 December, Friday

    Time Temperature Precipitation Wind Pressure Humidity
    00:00 +19°C° 0 mm 1 mps 653 mmHg 86%
    01:00 +19°C° 0 mm 1 mps 653 mmHg 87%
    02:00 +19°C° 0 mm 1 mps 652 mmHg 87%
    03:00 +18°C° 0 mm 1 mps 652 mmHg 87%
    04:00 +18°C° 0 mm 1 mps 652 mmHg 87%
    05:00 +19°C° 0 mm 1 mps 653 mmHg 85%
    06:00 +19°C° 0 mm 1 mps 653 mmHg 83%
    07:00 +20°C° 0 mm 1 mps 654 mmHg 80%
    08:00 +23°C° 0 mm 1 mps 654 mmHg 71%
    09:00 +25°C° 0 mm 1 mps 655 mmHg 61%
    10:00 +28°C° 0 mm 1 mps 656 mmHg 51%
    11:00 +29°C° 0 mm 1 mps 655 mmHg 49%
    12:00 +30°C° 0 mm 1 mps 655 mmHg 46%
    13:00 +31°C° 0 mm 1 mps 654 mmHg 43%
    14:00 +30°C° 0.1 mm 2 mps 653 mmHg 47%
    15:00 +29°C° 0.1 mm 2 mps 653 mmHg 51%
    16:00 +28°C° 0.1 mm 2 mps 652 mmHg 55%
    17:00 +26°C° 0.5 mm 2 mps 652 mmHg 62%
    18:00 +24°C° 0.5 mm 2 mps 652 mmHg 70%
    19:00 +21°C° 0.5 mm 2 mps 652 mmHg 77%
    20:00 +21°C° 0.2 mm 2 mps 652 mmHg 79%
    21:00 +20°C° 0.2 mm 2 mps 653 mmHg 81%
    22:00 +20°C° 0.2 mm 2 mps 653 mmHg 83%
    23:00 +19°C° 0 mm 2 mps 653 mmHg 85%

    23 December, Saturday

    Time Temperature Precipitation Wind Pressure Humidity
    00:00 +19°C° 0 mm 2 mps 652 mmHg 87%
    01:00 +18°C° 0 mm 2 mps 652 mmHg 89%
    02:00 +19°C° 0 mm 1 mps 651 mmHg 90%
    03:00 +19°C° 0 mm 1 mps 651 mmHg 91%
    04:00 +19°C° 0 mm 1 mps 651 mmHg 92%
    05:00 +19°C° 0 mm 1 mps 652 mmHg 89%
    06:00 +20°C° 0 mm 1 mps 652 mmHg 87%
    07:00 +20°C° 0 mm 1 mps 653 mmHg 84%
    08:00 +23°C° 0 mm 1 mps 653 mmHg 75%
    09:00 +25°C° 0 mm 1 mps 654 mmHg 66%
    10:00 +28°C° 0 mm 1 mps 654 mmHg 57%
    11:00 +28°C° 0.1 mm 1 mps 654 mmHg 56%
    12:00 +28°C° 0.1 mm 1 mps 653 mmHg 54%
    13:00 +29°C° 0.1 mm 2 mps 653 mmHg 53%
    14:00 +28°C° 0.9 mm 2 mps 652 mmHg 57%
    15:00 +27°C° 0.9 mm 2 mps 652 mmHg 62%
    16:00 +27°C° 0.9 mm 2 mps 651 mmHg 66%
    17:00 +25°C° 0.8 mm 2 mps 651 mmHg 72%
    18:00 +24°C° 0.8 mm 2 mps 652 mmHg 79%
    19:00 +22°C° 0.8 mm 1 mps 652 mmHg 85%
    20:00 +22°C° 0.1 mm 1 mps 652 mmHg 86%
    21:00 +20°C° 0.1 mm 2 mps 652 mmHg 88%
    22:00 +20°C° 0.1 mm 2 mps 652 mmHg 89%
    23:00 +19°C° 0 mm 2 mps 652 mmHg 90%
    Show more